When you browse on this site, cookies collect data to enhance your experience and personalize the content and advertising you see.
Visit our Privacy Policy to learn more. By continuing to use the site, you agree to this use of cookies and data.
  • în România
  • Lista ţărilor
  • Pe 7 zile
  • Temperatura apei
  • Hartă satelitară
  • Meteo pe hartă
  • Widget-uri
  • user-avatar
    Intrare

    Meteo pe oră la Malaya Kiselenka

    Astăzi, 21 Martie, Joi

    Timp Temperatura Precipitaţii Vânt Presiune Umiditate
    00:00 -3°C° 0 mm 2 m/s 749 mmHg 91%
    01:00 -3°C° 0 mm 2 m/s 749 mmHg 90%
    02:00 -4°C° 0 mm 3 m/s 748 mmHg 91%
    03:00 -3°C° 0.1 mm 2 m/s 748 mmHg 92%
    04:00 -3°C° 0.1 mm 2 m/s 748 mmHg 92%
    05:00 -3°C° 0.1 mm 2 m/s 747 mmHg 93%
    06:00 -2°C° 0.1 mm 2 m/s 747 mmHg 92%
    07:00 -1°C° 0.1 mm 3 m/s 747 mmHg 90%
    08:00 0°C° 0.1 mm 3 m/s 747 mmHg 89%
    09:00 0°C° 0 mm 3 m/s 747 mmHg 88%
    10:00 +1°C° 0 mm 3 m/s 747 mmHg 86%
    11:00 +2°C° 0 mm 3 m/s 747 mmHg 85%
    12:00 +2°C° 0 mm 3 m/s 748 mmHg 83%
    13:00 +2°C° 0 mm 3 m/s 748 mmHg 82%
    14:00 +2°C° 0 mm 3 m/s 748 mmHg 80%
    15:00 +2°C° 0 mm 3 m/s 748 mmHg 82%
    16:00 +2°C° 0 mm 2 m/s 748 mmHg 84%
    17:00 +2°C° 0 mm 2 m/s 748 mmHg 86%
    18:00 +1°C° 0 mm 2 m/s 748 mmHg 88%
    19:00 -1°C° 0 mm 2 m/s 748 mmHg 90%
    20:00 -1°C° 0 mm 2 m/s 748 mmHg 93%
    21:00 -1°C° 0 mm 2 m/s 747 mmHg 93%
    22:00 -1°C° 0 mm 2 m/s 747 mmHg 93%
    23:00 -1°C° 0 mm 2 m/s 746 mmHg 93%

    Mâine, 22 Martie, Vineri

    Timp Temperatura Precipitaţii Vânt Presiune Umiditate
    00:00 -1°C° 0 mm 2 m/s 745 mmHg 93%
    01:00 0°C° 0 mm 3 m/s 745 mmHg 92%
    02:00 0°C° 0 mm 3 m/s 744 mmHg 92%
    03:00 0°C° 0.5 mm 3 m/s 743 mmHg 92%
    04:00 +1°C° 0.5 mm 3 m/s 741 mmHg 92%
    05:00 0°C° 0.5 mm 4 m/s 740 mmHg 91%
    06:00 0°C° 1.5 mm 5 m/s 740 mmHg 90%
    07:00 -1°C° 1.5 mm 6 m/s 739 mmHg 89%
    08:00 0°C° 1.5 mm 7 m/s 739 mmHg 88%
    09:00 -1°C° 0.4 mm 7 m/s 739 mmHg 83%
    10:00 -2°C° 0.4 mm 8 m/s 740 mmHg 77%
    11:00 -2°C° 0.4 mm 8 m/s 741 mmHg 72%
    12:00 -2°C° 0 mm 8 m/s 741 mmHg 71%
    13:00 -2°C° 0 mm 8 m/s 742 mmHg 71%
    14:00 -2°C° 0 mm 7 m/s 743 mmHg 70%
    15:00 -2°C° 0.1 mm 7 m/s 743 mmHg 72%
    16:00 -3°C° 0.1 mm 6 m/s 744 mmHg 75%
    17:00 -3°C° 0.1 mm 6 m/s 744 mmHg 77%
    18:00 -3°C° 0.1 mm 6 m/s 744 mmHg 79%
    19:00 -3°C° 0.1 mm 6 m/s 745 mmHg 80%
    20:00 -2°C° 0.1 mm 5 m/s 745 mmHg 82%
    21:00 -2°C° 0 mm 5 m/s 746 mmHg 83%
    22:00 -2°C° 0 mm 5 m/s 746 mmHg 84%
    23:00 -1°C° 0 mm 5 m/s 747 mmHg 85%

    Poimâine, 23 Martie, Sâmbătă

    Timp Temperatura Precipitaţii Vânt Presiune Umiditate
    00:00 -2°C° 0 mm 5 m/s 747 mmHg 87%
    01:00 -2°C° 0 mm 4 m/s 748 mmHg 88%
    02:00 -2°C° 0 mm 4 m/s 749 mmHg 89%
    03:00 -2°C° 0 mm 4 m/s 749 mmHg 90%
    04:00 -2°C° 0 mm 4 m/s 750 mmHg 91%
    05:00 -1°C° 0 mm 3 m/s 750 mmHg 91%
    06:00 -1°C° 0 mm 3 m/s 751 mmHg 91%
    07:00 -1°C° 0 mm 3 m/s 751 mmHg 90%
    08:00 +1°C° 0 mm 2 m/s 752 mmHg 89%
    09:00 +1°C° 0 mm 2 m/s 752 mmHg 86%
    10:00 +2°C° 0 mm 2 m/s 752 mmHg 84%
    11:00 +3°C° 0 mm 1 m/s 752 mmHg 81%
    12:00 +4°C° 0 mm 1 m/s 751 mmHg 79%
    13:00 +4°C° 0 mm 1 m/s 751 mmHg 78%
    14:00 +4°C° 0 mm 1 m/s 751 mmHg 76%
    15:00 +4°C° 0 mm 1 m/s 750 mmHg 79%
    16:00 +3°C° 0 mm 1 m/s 750 mmHg 83%
    17:00 +3°C° 0 mm 1 m/s 750 mmHg 86%
    18:00 +1°C° 0 mm 2 m/s 749 mmHg 87%
    19:00 +1°C° 0 mm 2 m/s 749 mmHg 88%
    20:00 -1°C° 0 mm 3 m/s 749 mmHg 89%
    21:00 -1°C° 0 mm 3 m/s 748 mmHg 88%
    22:00 0°C° 0 mm 3 m/s 747 mmHg 88%
    23:00 0°C° 0 mm 3 m/s 746 mmHg 87%

    24 Martie, Duminică

    Timp Temperatura Precipitaţii Vânt Presiune Umiditate
    00:00 0°C° 0.7 mm 3 m/s 746 mmHg 88%
    01:00 0°C° 0.7 mm 3 m/s 745 mmHg 89%
    02:00 0°C° 0.7 mm 3 m/s 745 mmHg 90%
    03:00 0°C° 0.6 mm 3 m/s 745 mmHg 91%
    04:00 0°C° 0.6 mm 3 m/s 744 mmHg 92%
    05:00 0°C° 0.6 mm 3 m/s 744 mmHg 93%
    06:00 0°C° 0 mm 3 m/s 744 mmHg 92%
    07:00 0°C° 0 mm 3 m/s 744 mmHg 92%
    08:00 -1°C° 0 mm 4 m/s 744 mmHg 91%
    09:00 0°C° 0 mm 4 m/s 744 mmHg 84%
    10:00 +1°C° 0 mm 4 m/s 744 mmHg 78%
    11:00 +3°C° 0 mm 4 m/s 744 mmHg 71%
    12:00 +1°C° 0.3 mm 4 m/s 744 mmHg 71%
    13:00 +1°C° 0.3 mm 5 m/s 744 mmHg 72%
    14:00 +1°C° 0.3 mm 5 m/s 744 mmHg 72%
    15:00 0°C° 0.1 mm 4 m/s 744 mmHg 74%
    16:00 0°C° 0.1 mm 4 m/s 744 mmHg 76%
    17:00 0°C° 0.1 mm 3 m/s 744 mmHg 77%
    18:00 -1°C° 0 mm 3 m/s 745 mmHg 79%
    19:00 -2°C° 0 mm 3 m/s 745 mmHg 80%
    20:00 -4°C° 0 mm 3 m/s 745 mmHg 82%
    21:00 -4°C° 0 mm 3 m/s 745 mmHg 83%
    22:00 -4°C° 0 mm 3 m/s 745 mmHg 83%
    23:00 -5°C° 0 mm 3 m/s 745 mmHg 84%

    25 Martie, Luni

    Timp Temperatura Precipitaţii Vânt Presiune Umiditate
    00:00 -5°C° 0 mm 3 m/s 745 mmHg 85%
    01:00 -5°C° 0 mm 3 m/s 745 mmHg 86%
    02:00 -6°C° 0 mm 3 m/s 745 mmHg 87%
    03:00 -6°C° 0 mm 3 m/s 745 mmHg 88%
    04:00 -6°C° 0 mm 3 m/s 745 mmHg 89%
    05:00 -6°C° 0 mm 3 m/s 745 mmHg 89%
    06:00 -5°C° 0 mm 2 m/s 745 mmHg 86%
    07:00 -4°C° 0 mm 2 m/s 745 mmHg 83%
    08:00 -3°C° 0 mm 2 m/s 745 mmHg 80%
    09:00 -2°C° 0 mm 2 m/s 745 mmHg 73%
    10:00 -1°C° 0 mm 2 m/s 745 mmHg 67%
    11:00 +2°C° 0 mm 2 m/s 744 mmHg 60%
    12:00 +2°C° 0 mm 2 m/s 744 mmHg 58%
    13:00 +3°C° 0 mm 2 m/s 744 mmHg 57%
    14:00 +3°C° 0 mm 2 m/s 743 mmHg 55%
    15:00 +3°C° 0 mm 1 m/s 743 mmHg 59%
    16:00 +3°C° 0 mm 1 m/s 743 mmHg 64%
    17:00 +2°C° 0 mm 1 m/s 742 mmHg 69%
    18:00 +1°C° 0 mm 1 m/s 742 mmHg 72%
    19:00 +1°C° 0 mm 1 m/s 742 mmHg 74%
    20:00 -2°C° 0 mm 2 m/s 742 mmHg 77%
    21:00 -3°C° 0 mm 2 m/s 742 mmHg 78%
    22:00 -3°C° 0 mm 2 m/s 742 mmHg 78%
    23:00 -3°C° 0 mm 2 m/s 741 mmHg 79%

    26 Martie, Marţi

    Timp Temperatura Precipitaţii Vânt Presiune Umiditate
    00:00 -3°C° 0 mm 2 m/s 741 mmHg 78%
    01:00 -3°C° 0 mm 2 m/s 741 mmHg 78%
    02:00 -3°C° 0 mm 2 m/s 741 mmHg 78%
    03:00 -3°C° 0 mm 2 m/s 741 mmHg 78%
    04:00 -3°C° 0 mm 2 m/s 741 mmHg 77%
    05:00 -3°C° 0 mm 2 m/s 741 mmHg 77%
    06:00 -4°C° 0 mm 3 m/s 741 mmHg 75%
    07:00 -2°C° 0 mm 3 m/s 741 mmHg 72%
    08:00 -1°C° 0 mm 3 m/s 741 mmHg 69%
    09:00 -1°C° 0 mm 4 m/s 741 mmHg 65%
    10:00 0°C° 0 mm 4 m/s 741 mmHg 60%
    11:00 +1°C° 0 mm 4 m/s 741 mmHg 56%
    12:00 +1°C° 0 mm 4 m/s 741 mmHg 54%
    13:00 +3°C° 0 mm 4 m/s 741 mmHg 53%
    14:00 +3°C° 0 mm 4 m/s 741 mmHg 51%
    15:00 +1°C° 0 mm 4 m/s 741 mmHg 56%
    16:00 +1°C° 0 mm 3 m/s 742 mmHg 61%
    17:00 +1°C° 0 mm 3 m/s 742 mmHg 67%
    18:00 0°C° 0 mm 3 m/s 742 mmHg 71%
    19:00 -1°C° 0 mm 2 m/s 742 mmHg 75%
    20:00 -1°C° 0 mm 2 m/s 743 mmHg 79%
    21:00 -2°C° 0 mm 2 m/s 743 mmHg 81%
    22:00 -2°C° 0 mm 2 m/s 743 mmHg 84%
    23:00 -2°C° 0 mm 2 m/s 743 mmHg 86%
    Arată mai mult